Weather History for KBMI - October, 2014

Change the Weather History Date:

Tuesday, October 21, 2014

  Actual Average Record
Temperature  
Mean Temperature 49 °F -  
Max Temperature 59 °F 50 °F 79 °F (2007)
Min Temperature 38 °F 49 °F 32 °F (2002)
Degree Days  
Heating Degree Days 16    
Moisture  
Dew Point 40 °F    
Average Humidity 75    
Maximum Humidity 93    
Minimum Humidity 46    
Precipitation  
Precipitation 0.00 in - - ()
Sea Level Pressure  
Sea Level Pressure 30.16 in    
Wind  
Wind Speed 7 mph (NNE)    
Max Wind Speed 13 mph    
Max Gust Speed 17 mph    
Visibility 10 miles    
Events      
Averages and records for this station are not official NWS values.
T = Trace of Precipitation, MM = Missing Value Source: NWS Daily Summary

Daily Weather History Graph

Daily Weather History Graph

Search for Another Location

Airport or City:

Trip Planner

Search our weather history database for the weather conditions in past years. The results will help you decide how hot, cold, wet, or windy it might be!

Date:

Astronomy

Oct. 21, 2014 Rise Set
Actual Time 7:13 AM CDT 6:06 PM CDT
Civil Twilight 6:45 AM CDT 6:34 PM CDT
Nautical Twilight 6:13 AM CDT 7:06 PM CDT
Astronomical Twilight 5:42 AM CDT 7:37 PM CDT
Moon 4:56 AM CDT (10/21) 5:01 PM CDT (10/21)
Length of Visible Light 11h 49m
Length of Day
10h 53m
Waning Crescent, 5% of the Moon is Illuminated
Oct 21
Waning Crescent
Oct 23
New
Oct 30
First Quarter
Nov 6
Full
Nov 14
Last Quarter

Hourly Weather History & Observations

Time (CDT) Temp. Windchill Dew Point Humidity Pressure Visibility Wind Dir Wind Speed Gust Speed Precip Events Conditions
12:56 AM 46.9 °F - 43.0 °F 86% 30.02 in 10.0 mi NNW 3.5 mph - N/A   Clear
1:56 AM 43.9 °F 41.3 °F 41.9 °F 93% 30.03 in 10.0 mi NNW 4.6 mph - N/A   Clear
2:56 AM 45.0 °F 42.6 °F 41.0 °F 86% 30.04 in 10.0 mi NNW 4.6 mph - N/A   Clear
3:56 AM 45.0 °F 41.8 °F 41.0 °F 86% 30.05 in 10.0 mi NNW 5.8 mph - N/A   Clear
4:56 AM 43.9 °F 39.9 °F 39.9 °F 86% 30.07 in 10.0 mi NNW 6.9 mph - N/A   Clear
5:56 AM 43.0 °F 38.2 °F 39.9 °F 89% 30.09 in 10.0 mi NNW 8.1 mph - N/A   Clear
6:56 AM 43.0 °F 39.5 °F 39.9 °F 89% 30.12 in 10.0 mi North 5.8 mph - N/A   Clear
7:56 AM 43.0 °F 39.5 °F 39.9 °F 89% 30.14 in 10.0 mi NNW 5.8 mph - N/A   Clear
8:56 AM 47.8 °F - 43.9 °F 86% 30.16 in 10.0 mi North 10.4 mph - N/A   Clear
9:56 AM 52.0 °F - 43.9 °F 74% 30.17 in 10.0 mi North 10.4 mph - N/A   Clear
10:56 AM 54.9 °F - 41.0 °F 60% 30.17 in 10.0 mi NNE 12.7 mph - N/A   Clear
11:56 AM 55.9 °F - 39.9 °F 55% 30.18 in 10.0 mi NNE 9.2 mph 17.3 mph N/A   Clear
12:56 PM 56.8 °F - 38.8 °F 51% 30.17 in 10.0 mi NNE 12.7 mph 17.3 mph N/A   Partly Cloudy
1:56 PM 57.9 °F - 38.8 °F 49% 30.16 in 10.0 mi NNE 11.5 mph - N/A   Clear
2:56 PM 59.0 °F - 37.9 °F 46% 30.17 in 10.0 mi NE 11.5 mph - N/A   Clear
3:56 PM 59.0 °F - 38.8 °F 47% 30.17 in 10.0 mi North 10.4 mph - N/A   Clear
4:56 PM 56.8 °F - 39.9 °F 53% 30.19 in 10.0 mi NE 12.7 mph - N/A   Clear
5:56 PM 52.9 °F - 39.9 °F 61% 30.21 in 10.0 mi NE 9.2 mph - N/A   Clear
6:56 PM 48.9 °F - 41.0 °F 74% 30.22 in 10.0 mi ENE 11.5 mph - N/A   Clear
7:56 PM 46.9 °F - 41.9 °F 83% 30.25 in 10.0 mi ENE 6.9 mph - N/A   Clear
8:56 PM 43.0 °F 38.2 °F 39.9 °F 89% 30.26 in 10.0 mi NE 8.1 mph - N/A   Clear
9:56 PM 41.9 °F 36.9 °F 38.8 °F 89% 30.27 in 10.0 mi ENE 8.1 mph - N/A   Clear
10:56 PM 39.9 °F 35.1 °F 37.9 °F 93% 30.28 in 10.0 mi NE 6.9 mph - N/A   Clear
11:56 PM 38.8 °F 35.4 °F 36.9 °F 93% 30.27 in 10.0 mi NE 4.6 mph - N/A   Clear